TimeCST,TemperatureF,Dew PointF,Humidity,Sea Level PressureIn,VisibilityMPH,Wind Direction,Wind SpeedMPH,Gust SpeedMPH,PrecipitationIn,Events,Conditions,WindDirDegrees,DateUTC
12:53 AM,39.9,12.0,32,29.71,10.0,WNW,8.1,-,N/A,,Clear,300,2012-11-11 06:53:00
1:53 AM,37.9,12.0,35,29.75,10.0,WSW,5.8,-,N/A,,Overcast,250,2012-11-11 07:53:00
2:53 AM,35.1,12.9,40,29.76,9.0,SW,8.1,-,N/A,,Overcast,220,2012-11-11 08:53:00
3:53 AM,36.0,12.9,39,29.77,10.0,WNW,5.8,-,N/A,,Mostly Cloudy,300,2012-11-11 09:53:00
4:53 AM,30.9,12.9,47,29.79,10.0,West,12.7,-,N/A,,Clear,270,2012-11-11 10:53:00
5:53 AM,32.0,10.0,40,29.83,10.0,NNW,10.4,-,N/A,,Clear,340,2012-11-11 11:53:00
6:28 AM,28.4,10.4,47,29.88,10.0,NNW,6.9,-,N/A,,Partly Cloudy,330,2012-11-11 12:28:00
6:53 AM,30.9,17.1,57,29.87,10.0,North,6.9,-,N/A,,Mostly Cloudy,350,2012-11-11 12:53:00
7:08 AM,30.2,21.2,69,29.90,10.0,North,10.4,-,N/A,,Mostly Cloudy,360,2012-11-11 13:08:00
7:53 AM,34.0,28.0,79,29.91,10.0,NNE,12.7,-,N/A,,Overcast,30,2012-11-11 13:53:00
8:53 AM,35.1,26.1,70,29.95,10.0,NNE,11.5,-,N/A,,Overcast,20,2012-11-11 14:53:00
9:02 AM,33.8,24.8,70,29.98,10.0,North,11.5,-,N/A,,Overcast,10,2012-11-11 15:02:00
9:41 AM,33.8,24.8,70,30.00,10.0,North,11.5,-,N/A,,Scattered Clouds,10,2012-11-11 15:41:00
9:53 AM,36.0,24.1,62,29.99,10.0,North,12.7,24.2,N/A,,Mostly Cloudy,10,2012-11-11 15:53:00
10:53 AM,35.6,21.2,56,30.02,10.0,North,13.8,19.6,N/A,,Mostly Cloudy,360,2012-11-11 16:53:00
11:53 AM,37.4,23.0,56,30.03,10.0,NNE,8.1,-,N/A,,Mostly Cloudy,20,2012-11-11 17:53:00
12:53 PM,39.0,21.0,49,30.02,10.0,North,10.4,-,N/A,,Partly Cloudy,10,2012-11-11 18:53:00
1:53 PM,39.9,19.0,43,30.02,10.0,Variable,4.6,-,N/A,,Clear,0,2012-11-11 19:53:00
2:53 PM,43.0,21.0,42,30.04,10.0,North,11.5,-,N/A,,Scattered Clouds,360,2012-11-11 20:53:00
3:53 PM,39.9,19.9,45,30.07,10.0,NNE,9.2,-,N/A,,Partly Cloudy,20,2012-11-11 21:53:00
4:53 PM,39.9,19.0,43,30.12,10.0,NNE,6.9,-,N/A,,Mostly Cloudy,30,2012-11-11 22:53:00
5:53 PM,37.0,19.9,50,30.14,10.0,East,6.9,-,N/A,,Clear,80,2012-11-11 23:53:00
6:53 PM,35.1,19.0,52,30.20,10.0,NE,4.6,-,N/A,,Mostly Cloudy,50,2012-11-12 00:53:00
7:53 PM,33.1,19.0,56,30.20,8.0,East,8.1,-,N/A,,Clear,80,2012-11-12 01:53:00
8:53 PM,30.9,17.1,57,30.25,10.0,ENE,5.8,-,N/A,,Clear,70,2012-11-12 02:53:00
9:53 PM,30.0,16.0,56,30.29,10.0,NE,5.8,-,N/A,,Clear,40,2012-11-12 03:53:00
10:53 PM,25.0,12.9,60,30.32,10.0,Calm,Calm,-,N/A,,Clear,0,2012-11-12 04:53:00
11:53 PM,24.1,16.0,71,30.33,5.0,WSW,4.6,-,N/A,,Haze,250,2012-11-12 05:53:00